Weather reports worldwide

Advertisment
Hyeres, France (7667): temperature & dewpoint: 16.09.2018 23:00:00 - 22.09.2018 23:00:00 (CEST)Hyeres, France (7667): temperature 5cm: 16.09.2018 23:00:00 - 22.09.2018 23:00:00 (CEST)Hyeres, France (7667): wind speed & gusts: 16.09.2018 23:00:00 - 22.09.2018 23:00:00 (CEST)Hyeres, France (7667): wind direction: 16.09.2018 23:00:00 - 22.09.2018 23:00:00 (CEST)Hyeres, France (7667): reduced air pressure: 16.09.2018 23:00:00 - 22.09.2018 23:00:00 (CEST)Hyeres, France (7667): visibility: 16.09.2018 23:00:00 - 22.09.2018 23:00:00 (CEST)Hyeres, France (7667): precipitation: 16.09.2018 23:00:00 - 22.09.2018 23:00:00 (CEST)
Date & Time tt [°C] td [°C] tt 5cm [°C] ff [km/h] ff [kn] fx [km/h] fx [kn] dd ppp [hPa] vv [km] rr [mm]
22.09.2018 23:00:00 20,1 14,7 16,7 3 2 11 6 N 1018,3 60 0,0
22.09.2018 22:00:00 22,7 14,5 17,5 3 1 13 7 N 1017,9 60 0,0
22.09.2018 21:00:00 23,5 13,7 18,8 6 3 13 7 NW 1017,2 60 0,0
22.09.2018 20:00:00 26,4 9,7 22,8 11 6 22 12 ESE 1016,4 20 0,0
22.09.2018 19:00:00 30,8 7,3 30,3 6 4 30 16 NNW 1015,7 60 0,0
22.09.2018 18:00:00 31,2 7,0 30,9 11 6 30 16 NW 1015,1 20 0,0
22.09.2018 17:00:00 30,8 9,1 36,5 21 11 30 16 WNW 1015,1 20 0,0
22.09.2018 16:00:00 31,5 7,2 35,5 21 11 28 15 W 1015,2 20 0,0
22.09.2018 15:00:00 28,4 12,7 29,2 18 10 40 22 WSW 1015,7 20 0,0
22.09.2018 14:00:00 26,8 12,8 29,0 21 11 31 17 SSW 1016,0 50 0,0
22.09.2018 13:00:00 28,1 12,0 33,6 18 10 36 19 SW 1016,3 54 0,0
22.09.2018 12:00:00 27,4 12,2 34,0 18 10 30 16 SW 1016,5 60 0,0
22.09.2018 11:00:00 28,0 1,5 30,1 5 3 26 14 NW 1016,8 60 0,0
22.09.2018 10:00:00 25,3 4,4 24,4 12 7 27 14 W 1016,6 53 0,0
22.09.2018 09:00:00 24,0 7,6 22,7 14 8 23 12 W 1016,2 58 0,0
22.09.2018 08:00:00 22,6 11,9 17,2 0 0 28 15 N 1015,9 59 0,0
22.09.2018 07:00:00 23,3 13,2 19,4 16 9 26 14 W 1015,5 60 0,0
22.09.2018 06:00:00 24,3 12,6 22,2 15 8 26 14 WNW 1015,2 60 0,0
22.09.2018 05:00:00 25,2 12,8 19,8 15 8 24 13 NW 1015,4 60 0,0
22.09.2018 04:00:00 22,6 13,1 18,0 12 6 17 9 NW 1015,4 60 0,0
22.09.2018 03:00:00 22,5 14,3 17,3 4 2 8 4 SSE 1015,8 57 0,0
22.09.2018 02:00:00 22,5 14,9 17,4 5 3 19 11 ESE 1016,0 50 0,0
22.09.2018 01:00:00 21,8 16,3 18,5 3 2 13 7 WNW 1016,0 33 0,0
22.09.2018 00:00:00 24,5 16,2 18,5 8 4 12 6 WNW 1015,8 37 0,0
21.09.2018 23:00:00 23,2 17,0 20,1 6 3 25 13 ENE 1015,9 34 0,0
21.09.2018 22:00:00 25,8 17,2 23,0 14 8 32 17 W 1015,8 37 0,0
21.09.2018 21:00:00 26,3 17,4 24,1 23 12 36 19 W 1015,6 33 0,0
21.09.2018 20:00:00 26,9 16,5 24,6 17 9 29 16 W 1015,0 46 0,0
21.09.2018 19:00:00 27,2 16,8 26,9 19 10 40 21 W 1014,8 31 0,0
21.09.2018 18:00:00 27,5 19,6 29,8 24 13 46 25 WSW 1014,6 44 0,0
21.09.2018 17:00:00 27,9 19,9 31,5 26 14 46 25 WSW 1014,7 20 0,0
21.09.2018 16:00:00 29,3 15,8 33,5 35 19 48 26 WSW 1014,9 27 0,0
21.09.2018 15:00:00 29,3 18,7 31,7 28 15 42 23 WSW 1015,3 19 0,0
21.09.2018 14:00:00 28,7 18,8 34,5 30 16 39 21 SW 1015,7 31 0,0
21.09.2018 13:00:00 28,7 18,5 35,4 22 12 33 18 SW 1016,2 20 0,0
21.09.2018 12:00:00 29,5 14,1 36,1 16 9 23 12 SW 1016,7 51 0,0
21.09.2018 11:00:00 29,3 15,4 36,7 8 4 13 7 SSW 1016,8 20 0,0
21.09.2018 10:00:00 27,1 16,1 32,1 8 4 15 8 NW 1016,6 20 0,0
21.09.2018 09:00:00 24,2 17,2 19,5 5 3 9 5 NNW 1016,3 19 0,0
21.09.2018 08:00:00 19,3 15,6 16,2 4 2 11 6 N 1016,2 19 0,0
21.09.2018 07:00:00 19,1 15,4 16,1 6 3 12 6 NNW 1015,8 27 0,0
21.09.2018 06:00:00 19,8 15,6 16,3 5 3 11 6 N 1015,6 20 0,0
21.09.2018 05:00:00 19,7 15,8 16,8 5 3 11 6 N 1015,9 26 0,0
21.09.2018 04:00:00 20,5 16,3 16,3 8 5 14 7 NW 1015,9 20 0,0
21.09.2018 03:00:00 20,5 15,9 17,3 5 3 13 7 N 1016,4 24 0,0
21.09.2018 02:00:00 20,5 16,3 16,3 9 5 12 7 NW 1016,8 24 0,0
21.09.2018 01:00:00 19,7 16,7 16,4 4 2 9 5 N 1016,9 18 0,0
21.09.2018 00:00:00 19,5 16,9 16,8 4 2 6 3 N 1017,2 15 0,0
20.09.2018 23:00:00 20,7 17,5 17,3 4 2 6 3 N 1017,2 14 0,0
20.09.2018 22:00:00 22,3 17,7 18,2 6 3 10 6 NW 1017,1 18 0,0
20.09.2018 21:00:00 22,1 18,3 18,0 4 2 6 3 N 1017,0 14 0,0
20.09.2018 20:00:00 24,2 18,4 20,6 0 0 8 4 N 1016,8 18 0,0
20.09.2018 19:00:00 26,3 19,2 26,7 5 3 12 6 SSW 1016,9 20 0,0
20.09.2018 18:00:00 27,6 18,3 32,0 8 4 16 8 SSW 1016,9 20 0,0
20.09.2018 17:00:00 27,9 18,9 34,2 10 6 18 10 SW 1017,2 20 0,0
20.09.2018 16:00:00 28,5 18,9 35,9 9 5 19 11 S 1017,4 20 0,0
20.09.2018 15:00:00 28,1 19,1 35,4 10 6 21 11 SE 1017,8 19 0,0
20.09.2018 14:00:00 28,0 20,6 35,6 11 6 18 10 SE 1018,2 39 0,0
20.09.2018 13:00:00 27,9 19,7 36,4 10 5 16 9 SE 1018,5 19 0,0
20.09.2018 12:00:00 28,0 19,8 34,3 9 5 15 8 SSE 1018,8 45 0,0
20.09.2018 11:00:00 26,5 21,0 32,2 8 4 13 7 ESE 1018,9 20 0,0
20.09.2018 10:00:00 26,0 20,6 30,5 5 3 9 5 NE 1018,8 60 0,0
20.09.2018 09:00:00 23,5 16,5 21,0 4 2 14 8 N 1018,6 60 0,0
20.09.2018 08:00:00 19,6 16,1 15,1 10 6 13 7 NW 1018,5 20 0,0
20.09.2018 07:00:00 18,7 15,6 15,4 5 3 9 5 NNW 1018,3 27 0,0
20.09.2018 06:00:00 17,7 15,9 15,4 5 3 9 5 NNE 1018,3 18 0,0
20.09.2018 05:00:00 18,2 15,3 16,2 5 3 13 7 N 1018,5 20 0,0
20.09.2018 04:00:00 19,6 16,2 16,3 5 3 12 7 NNW 1018,7 20 0,0
20.09.2018 03:00:00 19,7 16,5 16,9 4 2 6 4 N 1019,0 20 0,0
20.09.2018 02:00:00 20,5 16,3 17,6 3 2 11 6 N 1019,2 20 0,0
20.09.2018 01:00:00 21,6 16,5 18,4 8 5 14 7 NW 1019,5 35 0,0
20.09.2018 00:00:00 20,1 16,7 18,1 8 4 11 6 NNW 1019,7 20 0,0
19.09.2018 23:00:00 21,9 17,3 18,2 6 3 10 5 N 1019,6 29 0,0
19.09.2018 22:00:00 22,6 17,3 18,8 0 0 9 5 N 1019,4 20 0,0
19.09.2018 21:00:00 23,9 17,6 19,5 4 2 8 4 NW 1019,2 20 0,0
19.09.2018 20:00:00 25,1 19,5 22,9 6 3 14 8 SW 1019,1 17 0,0
19.09.2018 19:00:00 26,5 18,9 26,8 9 5 17 9 SSW 1018,8 39 0,0
19.09.2018 18:00:00 27,5 18,2 31,5 10 5 16 9 SSW 1018,5 53 0,0
19.09.2018 17:00:00 28,1 18,5 34,3 11 6 19 10 SW 1018,5 20 0,0
19.09.2018 16:00:00 28,0 19,0 34,6 14 7 24 13 SW 1018,9 19 0,0
19.09.2018 15:00:00 28,3 19,2 35,9 12 7 24 13 S 1019,2 20 0,0
19.09.2018 14:00:00 28,9 17,7 36,7 13 7 21 11 SE 1019,4 17 0,0
19.09.2018 13:00:00 28,3 18,7 36,6 8 5 17 9 SSE 1019,8 59 0,0
19.09.2018 12:00:00 27,7 17,8 35,1 11 6 17 9 SE 1020,0 20 0,0
19.09.2018 11:00:00 27,9 17,4 34,7 6 3 11 6 E 1020,3 18 0,0
19.09.2018 10:00:00 26,2 17,3 31,1 7 4 12 7 N 1019,9 19 0,0
19.09.2018 09:00:00 23,1 18,4 19,2 5 3 11 6 NNW 1019,5 32 0,0
19.09.2018 08:00:00 20,3 17,9 17,3 8 5 12 7 NW 1019,1 18 0,0
19.09.2018 07:00:00 19,7 17,7 15,7 8 5 11 6 NW 1018,9 19 0,0
19.09.2018 06:00:00 19,6 17,6 16,5 4 2 10 6 N 1018,6 19 0,0
19.09.2018 05:00:00 19,9 17,7 16,9 5 3 10 5 NNW 1018,2 20 0,0
19.09.2018 04:00:00 20,5 18,1 18,1 5 3 15 8 NNW 1018,4 20 0,0
19.09.2018 03:00:00 20,6 18,5 18,2 9 5 16 9 NW 1018,7 18 0,0
19.09.2018 02:00:00 20,6 18,2 17,9 8 5 12 6 NW 1019,1 20 0,0
19.09.2018 01:00:00 20,6 18,4 17,5 8 4 12 6 NW 1019,3 25 0,0
19.09.2018 00:00:00 20,7 18,6 18,1 5 3 11 6 N 1019,3 19 0,0
18.09.2018 23:00:00 21,8 18,8 18,3 6 3 9 5 N 1019,2 20 0,0
18.09.2018 22:00:00 22,4 19,6 19,5 6 3 8 4 NNE 1019,0 20 0,0
18.09.2018 21:00:00 23,3 20,2 20,9 3 2 12 7 NNE 1018,2 20 0,0
18.09.2018 20:00:00 23,9 20,0 22,4 9 5 17 9 E 1017,5 35 0,0
18.09.2018 19:00:00 24,7 20,4 24,5 10 5 23 12 ESE 1017,3 10 0,0
18.09.2018 18:00:00 25,1 20,6 26,0 14 8 29 16 ESE 1017,5 35 0,0
18.09.2018 17:00:00 25,6 20,6 27,2 17 9 34 18 ESE 1017,7 17 0,0
18.09.2018 16:00:00 26,5 21,0 29,3 22 12 37 20 ESE 1018,3 19 0,0
18.09.2018 15:00:00 27,2 20,8 30,2 21 11 39 21 E 1018,7 19 0,0
18.09.2018 14:00:00 27,4 20,5 29,0 21 11 35 19 E 1018,9 20 0,0
18.09.2018 13:00:00 26,8 20,2 29,7 19 10 31 17 ESE 1019,1 20 0,0
18.09.2018 12:00:00 26,7 19,8 31,7 20 11 32 17 E 1019,2 20 0,0
18.09.2018 11:00:00 26,4 19,8 29,1 16 9 27 15 E 1019,3 20 0,0
18.09.2018 10:00:00 25,7 19,6 28,2 12 7 22 12 NE 1019,0 20 0,0
18.09.2018 09:00:00 22,7 19,5 21,8 9 5 14 8 N 1018,9 20 0,0
18.09.2018 08:00:00 19,8 18,5 17,1 6 3 13 7 NNW 1019,1 15 0,0
18.09.2018 07:00:00 18,9 17,7 16,4 8 5 11 6 NNW 1018,6 16 0,0
18.09.2018 06:00:00 18,6 17,3 15,6 6 3 11 6 N 1018,7 15 0,0
18.09.2018 05:00:00 18,1 16,8 15,9 5 3 9 5 N 1018,7 17 0,0
18.09.2018 04:00:00 18,4 16,9 16,3 5 3 9 5 N 1018,8 19 0,0
18.09.2018 03:00:00 18,8 17,1 16,3 4 2 10 5 NNW 1018,8 29 0,0
18.09.2018 02:00:00 19,6 17,6 16,5 8 5 11 6 NW 1018,8 33 0,0
18.09.2018 01:00:00 19,8 17,8 16,9 8 4 12 6 NNW 1019,1 30 0,0
18.09.2018 00:00:00 19,9 18,0 16,9 4 2 10 6 N 1019,3 33 0,0
17.09.2018 23:00:00 20,3 18,2 18,0 7 4 9 5 N 1019,4 40 0,0
17.09.2018 22:00:00 21,6 19,2 19,8 6 3 19 10 NNE 1019,6 36 0,0
17.09.2018 21:00:00 23,4 20,0 21,8 10 5 17 9 E 1019,4 48 0,0
17.09.2018 20:00:00 23,5 19,4 22,1 10 5 20 11 E 1018,9 54 0,0
17.09.2018 19:00:00 24,5 19,6 24,9 11 6 26 14 E 1018,7 20 0,0
17.09.2018 18:00:00 25,4 19,3 28,3 16 9 27 15 E 1018,8 18 0,0
17.09.2018 17:00:00 26,3 20,2 31,4 16 9 26 14 ESE 1019,2 28 0,0
17.09.2018 16:00:00 26,4 19,0 32,2 20 11 29 16 ESE 1019,6 28 0,0
17.09.2018 15:00:00 26,6 19,0 31,7 17 9 32 17 ESE 1020,2 28 0,0
17.09.2018 14:00:00 26,7 19,1 32,0 19 11 37 20 ESE 1021,0 20 0,0
17.09.2018 13:00:00 27,0 19,1 31,8 18 10 32 17 ESE 1021,0 37 0,0
17.09.2018 12:00:00 26,4 19,3 31,9 15 8 24 13 ESE 1021,2 42 0,0
17.09.2018 11:00:00 26,0 19,2 31,1 11 6 19 10 SE 1021,3 41 0,0
17.09.2018 10:00:00 25,0 18,4 28,3 6 3 11 6 NNE 1021,1 50 0,0
17.09.2018 09:00:00 21,4 18,0 19,6 6 3 9 5 NNW 1020,9 20 0,0
17.09.2018 08:00:00 19,2 17,2 15,7 4 2 7 4 N 1021,1 20 0,0
17.09.2018 07:00:00 18,0 16,5 13,8 4 2 8 4 NNW 1020,6 19 0,0
17.09.2018 06:00:00 17,8 16,3 14,6 4 2 10 5 N 1020,3 11 0,2
17.09.2018 05:00:00 18,1 16,8 13,8 5 3 9 5 N 1020,4 18 0,0
17.09.2018 04:00:00 19,2 17,3 16,1 5 3 11 6 N 1020,5 17 0,0
17.09.2018 03:00:00 19,7 18,2 16,7 8 4 14 7 NNW 1021,0 18 0,0
17.09.2018 02:00:00 19,8 18,5 16,5 10 5 14 8 NW 1021,3 17 0,0
17.09.2018 01:00:00 20,4 18,9 16,7 5 3 8 5 N 1021,5 15 0,0
17.09.2018 00:00:00 20,6 18,7 17,0 6 4 8 4 NNE 1021,4 15 0,0
16.09.2018 23:00:00 21,8 19,4 19,6 4 2 8 4 N 1021,8 20 0,0

tt = temperature
td = dewpoint
tt 5cm = temperature 5cm
ff = wind speed
fx = gusts
dd = wind direction
ppp = reduced air pressure
vv = visibility
rr = precipitation

Next stations